Location: Ergnies
(50.0854°N, 2.0375°E)
Time: 06:40:50
(UTC+00:00)

GEOS 3 Rocket - Pass Details

Date: 14 January 2026
Orbit: 768 x 845 km, 115.0° (Epoch: 10 February)

Event Time Altitude Azimuth Distance (km) Brightness Sun altitude
Rises 04:55:42 0° 134° (SE) 3,312 7.5 -26.5°
Reaches altitude 10° 04:57:58 10° 134° (SE) 2,395 6.7 -26.1°
Maximum altitude 05:03:11 85° 47° (NE) 833 3.6 -25.3°
Enters shadow 05:04:16 58° 325° (NW) 960 3.7 -25.1°
